Tulsa, OK

6:29 AM CDT on September 20, 2017 (GMT -0500)
Tulsa International

Weather History for KTUL - March, 2013

Change the Weather History Date:

Friday, March 8, 2013

  Actual Average Record
Temperature  
Mean Temperature 54 °F 49 °F  
Max Temperature 59 °F 60 °F 87 °F (1925)
Min Temperature 48 °F 38 °F 5 °F (1967)
Degree Days  
Heating Degree Days 11 16  
Month to date heating degree days 162 140  
Since 1 July heating degree days 2834 3051  
Cooling Degree Days 0 0  
Month to date cooling degree days 0 0  
Year to date cooling degree days 2 1  
Growing Degree Days 4 (Base 50)    
Moisture  
Dew Point 36 °F    
Average Humidity 54    
Maximum Humidity 68    
Minimum Humidity 40    
Precipitation  
Precipitation 0.00 in 0.10 in 1.67 in (1994)
Month to date precipitation 0.01 0.80  
Year to date precipitation 4.73 4.31  
Sea Level Pressure  
Sea Level Pressure 30.09 in    
Wind  
Wind Speed 14 mph (SSE)    
Max Wind Speed 24 mph    
Max Gust Speed 32 mph    
Visibility 10 miles    
Events      
T = Trace of Precipitation, MM = Missing Value Source: NWS Daily Summary

Daily Weather History Graph

Daily Weather History Graph

Search for Another Location

Airport or City:

Trip Planner

Search our weather history database for the weather conditions in past years. The results will help you decide how hot, cold, wet, or windy it might be!

Date:

Astronomy

Mar. 08, 2013 Rise Set
Actual Time 6:43 AM CST 6:25 PM CST
Civil Twilight 6:18 AM CST 6:50 PM CST
Nautical Twilight 5:48 AM CST 7:20 PM CST
Astronomical Twilight 5:18 AM CST 7:50 PM CST
Moon 4:24 AM CST (3/8) 3:25 PM CST (3/8)
Length of Visible Light 12h 32m
Length of Day
11h 41m
Waning Crescent, 11% of the Moon is Illuminated
Mar 8
Waning Crescent
Mar 11
New
Mar 19
First Quarter
Mar 27
Full
Apr 2
Last Quarter

Hourly Weather History & Observations

Time (CST) Temp. Dew Point Humidity Pressure Visibility Wind Dir Wind Speed Gust Speed Precip Events Conditions
12:53 AM 51.1 °F 30.0 °F 44% 30.13 in 10.0 mi SE 6.9 mph - N/A   Clear
1:53 AM 50.0 °F 30.0 °F 46% 30.14 in 10.0 mi SSE 10.4 mph - N/A   Clear
2:53 AM 48.9 °F 30.9 °F 50% 30.13 in 9.0 mi SE 10.4 mph - N/A   Clear
3:53 AM 48.9 °F 32.0 °F 52% 30.13 in 6.0 mi SE 10.4 mph - N/A   Smoke
4:53 AM 48.9 °F 32.0 °F 52% 30.13 in 9.0 mi SE 12.7 mph - N/A   Clear
5:53 AM 48.0 °F 32.0 °F 54% 30.14 in 10.0 mi SE 13.8 mph - N/A   Clear
6:53 AM 48.0 °F 32.0 °F 54% 30.16 in 9.0 mi SE 11.5 mph - N/A   Clear
7:53 AM 48.9 °F 32.0 °F 52% 30.17 in 9.0 mi SE 13.8 mph - N/A   Partly Cloudy
8:53 AM 51.1 °F 34.0 °F 52% 30.17 in 9.0 mi SE 12.7 mph - N/A   Scattered Clouds
9:53 AM 54.0 °F 36.0 °F 51% 30.15 in 9.0 mi SSE 17.3 mph 28.8 mph N/A   Scattered Clouds
10:33 AM 54.0 °F 37.0 °F 53% 30.17 in 9.0 mi South 19.6 mph 28.8 mph N/A   Overcast
10:53 AM 54.0 °F 37.0 °F 53% 30.16 in 9.0 mi SSE 19.6 mph 28.8 mph N/A   Overcast
11:06 AM 53.1 °F 37.9 °F 57% 30.17 in 9.0 mi SSE 20.7 mph 32.2 mph N/A   Overcast
11:53 AM 54.0 °F 39.9 °F 59% 30.16 in 10.0 mi SSE 18.4 mph 29.9 mph N/A   Mostly Cloudy
12:04 PM 53.1 °F 41.0 °F 64% 30.16 in 10.0 mi SSE 21.9 mph - N/A   Mostly Cloudy
12:53 PM 52.0 °F 41.0 °F 66% 30.14 in 10.0 mi SSE 20.7 mph 27.6 mph N/A   Overcast
1:53 PM 54.0 °F 39.9 °F 59% 30.09 in 9.0 mi SSE 17.3 mph 26.5 mph N/A   Overcast
2:53 PM 55.0 °F 41.0 °F 59% 30.06 in 9.0 mi SE 17.3 mph - N/A   Overcast
3:31 PM 57.0 °F 39.0 °F 51% 30.05 in 10.0 mi SSE 16.1 mph - N/A   Overcast
3:53 PM 57.0 °F 37.9 °F 49% 30.04 in 10.0 mi SSE 16.1 mph 24.2 mph N/A   Overcast
4:53 PM 57.9 °F 37.9 °F 47% 30.02 in 10.0 mi SSE 11.5 mph - N/A   Overcast
5:53 PM 57.9 °F 37.9 °F 47% 30.02 in 10.0 mi SE 9.2 mph - N/A   Overcast
6:53 PM 59.0 °F 37.9 °F 46% 30.01 in 10.0 mi SSE 12.7 mph - N/A   Overcast
7:53 PM 59.0 °F 37.0 °F 44% 30.02 in 10.0 mi SSE 12.7 mph 24.2 mph N/A   Overcast
8:53 PM 59.0 °F 36.0 °F 42% 30.03 in 10.0 mi South 16.1 mph - N/A   Overcast
9:53 PM 59.0 °F 36.0 °F 42% 30.01 in 10.0 mi SSE 16.1 mph - N/A   Overcast
10:53 PM 59.0 °F 36.0 °F 42% 29.98 in 10.0 mi SSE 15.0 mph 29.9 mph N/A   Overcast
11:53 PM 59.0 °F 36.0 °F 42% 29.95 in 10.0 mi SSE 17.3 mph 27.6 mph N/A   Overcast